| time (UTC) | temp C | wind direction | speed KPH | gust KPH | rain 1hr cm | rain 24hr cm | rain mn cm | humidity % | barometer mb |
| 20260507075717 | 5 | 279 | 3.2 | 3.2 | 0.00 | 0.00 | 0.00 | 90 | 1006.4 |
| 20260507075213 | 5 | 296 | 1.6 | 4.8 | 0.00 | 0.00 | 0.00 | 91 | 1006.5 |
| 20260507074710 | 5 | 283 | 1.6 | 3.2 | 0.00 | 0.00 | 0.00 | 90 | 1006.5 |
| 20260507074208 | 6 | 103 | 0.0 | 3.2 | 0.00 | 0.00 | 0.00 | 90 | 1006.3 |
| 20260507073704 | 5 | 304 | 0.0 | 3.2 | 0.00 | 0.00 | 0.00 | 90 | 1006.3 |
| 20260507073200 | 5 | 282 | 0.0 | 1.6 | 0.00 | 0.00 | 0.00 | 93 | 1005.8 |
| 20260507072658 | 5 | 266 | 4.8 | 4.8 | 0.00 | 0.00 | 0.00 | 94 | 1005.9 |
| 20260507072155 | 5 | 165 | 0.0 | 1.6 | 0.00 | 0.00 | 0.00 | 93 | 1005.9 |
| 20260507071653 | 6 | 38 | 0.0 | 3.2 | 0.00 | 0.00 | 0.00 | 91 | 1005.7 |
| 20260507071149 | 6 | 298 | 1.6 | 3.2 | 0.00 | 0.00 | 0.00 | 88 | 1005.9 |
| 20260507070646 | 6 | 324 | 8.0 | 16.1 | 0.00 | 0.00 | 0.00 | 88 | 1005.9 |
| 20260507070143 | 6 | 139 | 3.2 | 3.2 | 0.00 | 0.00 | 0.00 | 91 | 1006.0 |
| 20260507065639 | 6 | 154 | 3.2 | 3.2 | 0.00 | 0.00 | 0.00 | 89 | 1005.8 |
| 20260507065136 | 6 | 306 | 6.4 | 8.0 | 0.00 | 0.00 | 0.00 | 86 | 1005.7 |
| 20260507064634 | 6 | 312 | 9.7 | 14.5 | 0.00 | 0.00 | 0.00 | 85 | 1005.8 |
| 20260507064133 | 6 | 294 | 12.9 | 12.9 | 0.00 | 0.00 | 0.00 | 86 | 1005.7 |
| 20260507063630 | 6 | 295 | 8.0 | 17.7 | 0.00 | 0.00 | 0.00 | 86 | 1005.3 |
| 20260507063127 | 6 | 317 | 4.8 | 9.7 | 0.00 | 0.00 | 0.00 | 87 | 1005.3 |
| 20260507062623 | 6 | 287 | 9.7 | 12.9 | 0.00 | 0.00 | 0.00 | 86 | 1005.5 |
| 20260507062121 | 6 | 305 | 9.7 | 17.7 | 0.00 | 0.00 | 0.00 | 86 | 1005.6 |
| 20260507061619 | 6 | 286 | 11.3 | 17.7 | 0.00 | 0.00 | 0.00 | 85 | 1005.3 |
| 20260507061117 | 7 | 319 | 3.2 | 6.4 | 0.00 | 0.00 | 0.00 | 86 | 1005.4 |
| 20260507060614 | 6 | 274 | 6.4 | 8.0 | 0.00 | 0.00 | 0.00 | 89 | 1005.5 |
| 20260507060111 | 6 | 268 | 6.4 | 8.0 | 0.00 | 0.00 | 0.00 | 90 | 1005.6 |
| 20260507055606 | 6 | 302 | 9.7 | 14.5 | 0.00 | 0.00 | 0.00 | 96 | 1005.5 |
| 20260507055102 | 6 | 243 | 3.2 | 3.2 | 0.00 | 0.00 | 0.00 | 97 | 1005.5 |
| 20260507054558 | 7 | 174 | 0.0 | 3.2 | 0.00 | 0.00 | 0.00 | 97 | 1005.2 |
| 20260507054055 | 7 | 219 | 0.0 | 3.2 | 0.00 | 0.00 | 0.00 | 97 | 1005.2 |
| 20260507053553 | 7 | 121 | 3.2 | 3.2 | 0.00 | 0.00 | 0.00 | 97 | 1005.0 |
| 20260507053052 | 7 | 124 | 0.0 | 1.6 | 0.00 | 0.00 | 0.00 | 97 | 1004.6 |
| 20260507052549 | 7 | 119 | 0.0 | 0.0 | 0.00 | 0.00 | 0.00 | 97 | 1004.9 |
| 20260507052046 | 7 | 283 | 0.0 | 3.2 | 0.00 | 0.00 | 0.00 | 97 | 1005.3 |
| 20260507051543 | 7 | 150 | 0.0 | 1.6 | 0.00 | 0.00 | 0.00 | 97 | 1005.4 |
| 20260507051040 | 7 | 6 | 0.0 | 1.6 | 0.00 | 0.00 | 0.00 | 97 | 1005.3 |
| 20260507050536 | 7 | 141 | 1.6 | 1.6 | 0.00 | 0.00 | 0.00 | 96 | 1005.6 |
| 20260507050033 | 7 | 222 | 1.6 | 3.2 | 0.00 | 0.00 | 0.00 | 96 | 1005.3 |
| 20260507045530 | 7 | 109 | 1.6 | 3.2 | 0.00 | 0.00 | 0.00 | 96 | 1005.2 |
| 20260507045027 | 7 | 235 | 0.0 | 1.6 | 0.05 | 0.00 | 0.00 | 96 | 1005.4 |
| 20260507044524 | 7 | 338 | 0.0 | 1.6 | 0.05 | 0.00 | 0.00 | 95 | 1005.5 |
| 20260507044020 | 7 | 193 | 0.0 | 1.6 | 0.00 | 0.00 | 0.00 | 95 | 1005.3 |
| 20260507043516 | 7 | 123 | 3.2 | 3.2 | 0.00 | 0.00 | 0.00 | 95 | 1005.1 |
| 20260507043014 | 7 | 214 | 3.2 | 4.8 | 0.00 | 0.00 | 0.00 | 94 | 1005.4 |
| 20260507042510 | 7 | 272 | 4.8 | 6.4 | 0.00 | 0.00 | 0.00 | 94 | 1005.4 |
| 20260507042005 | 7 | 202 | 0.0 | 1.6 | 0.00 | 0.00 | 0.00 | 94 | 1005.5 |
| 20260507041503 | 7 | 250 | 6.4 | 6.4 | 0.00 | 0.00 | 0.00 | 95 | 1005.5 |
| 20260507040959 | 7 | 309 | 3.2 | 3.2 | 0.00 | 0.00 | 0.00 | 95 | 1005.6 |
| 20260507040455 | 7 | 283 | 0.0 | 3.2 | 0.05 | 0.00 | 0.00 | 95 | 1005.7 |
| 20260507035951 | 8 | 231 | 4.8 | 4.8 | 0.05 | 3.53 | 3.53 | 95 | 1005.6 |
| 20260507035448 | 8 | 314 | 4.8 | 8.0 | 0.00 | 3.51 | 3.51 | 96 | 1005.4 |
| 20260507034945 | 8 | 240 | 0.0 | 1.6 | 0.05 | 3.51 | 3.51 | 97 | 1005.5 |
| 20260507034441 | 8 | 177 | 1.6 | 3.2 | 0.13 | 3.51 | 3.51 | 96 | 1005.5 |
| 20260507033940 | 8 | 113 | 0.0 | 1.6 | 0.13 | 3.51 | 3.51 | 96 | 1005.5 |
| 20260507033437 | 8 | 303 | 8.0 | 12.9 | 0.18 | 3.48 | 3.48 | 97 | 1005.7 |
| 20260507032934 | 8 | 267 | 4.8 | 6.4 | 0.18 | 3.48 | 3.48 | 97 | 1005.7 |
| 20260507032431 | 8 | 262 | 3.2 | 4.8 | 0.05 | 3.45 | 3.45 | 97 | 1005.5 |
| 20260507031927 | 8 | 243 | 0.0 | 3.2 | 0.00 | 3.45 | 3.45 | 97 | 1005.4 |
| 20260507031426 | 8 | 249 | 4.8 | 4.8 | 0.00 | 3.45 | 3.45 | 97 | 1005.3 |
| 20260507030920 | 8 | 242 | 3.2 | 4.8 | 0.13 | 3.45 | 3.45 | 97 | 1005.3 |
| 20260507030418 | 8 | 231 | 1.6 | 4.8 | 0.30 | 3.45 | 3.45 | 98 | 1005.2 |
| 20260507025915 | 8 | 259 | 4.8 | 6.4 | 0.71 | 3.43 | 3.43 | 97 | 1005.1 |
| 20260507025412 | 8 | 283 | 6.4 | 6.4 | 0.89 | 3.40 | 3.40 | 98 | 1005.2 |
| 20260507024910 | 8 | 230 | 3.2 | 6.4 | 0.48 | 3.30 | 3.30 | 98 | 1005.1 |
| 20260507024407 | 9 | 269 | 6.4 | 8.0 | 0.18 | 3.25 | 3.25 | 98 | 1005.3 |
| 20260507023902 | 9 | 253 | 3.2 | 6.4 | 0.13 | 3.23 | 3.23 | 98 | 1005.3 |
| 20260507023359 | 10 | 234 | 3.2 | 6.4 | 0.30 | 3.23 | 3.23 | 98 | 1005.1 |
| 20260507022857 | 10 | 276 | 6.4 | 6.4 | 0.13 | 3.20 | 3.20 | 98 | 1004.9 |
| 20260507022353 | 10 | 294 | 3.2 | 4.8 | 0.18 | 3.17 | 3.17 | 98 | 1004.9 |
| 20260507021849 | 10 | 241 | 3.2 | 6.4 | 0.43 | 3.17 | 3.17 | 98 | 1005.0 |
| 20260507021344 | 10 | 220 | 1.6 | 1.6 | 0.53 | 3.15 | 3.15 | 98 | 1004.8 |
| 20260507020843 | 10 | 147 | 0.0 | 1.6 | 0.36 | 3.10 | 3.10 | 98 | 1004.9 |
| 20260507020339 | 10 | 233 | 0.0 | 3.2 | 0.13 | 3.05 | 3.05 | 98 | 1004.6 |
| 20260507015836 | 10 | 240 | 3.2 | 6.4 | 0.13 | 3.05 | 3.05 | 98 | 1004.9 |
| 20260507015334 | 10 | 293 | 0.0 | 1.6 | 0.18 | 3.02 | 3.02 | 98 | 1004.9 |
| 20260507014831 | 10 | 224 | 0.0 | 0.0 | 0.18 | 3.02 | 3.02 | 98 | 1004.8 |
| 20260507014327 | 10 | 299 | 0.0 | 3.2 | 0.23 | 3.00 | 3.00 | 98 | 1005.0 |
| 20260507013824 | 10 | 261 | 3.2 | 3.2 | 0.30 | 2.97 | 2.97 | 98 | 1004.8 |
| 20260507013321 | 11 | 229 | 3.2 | 3.2 | 0.13 | 2.95 | 2.95 | 98 | 1004.8 |
| 20260507012819 | 11 | 235 | 0.0 | 3.2 | 0.30 | 2.92 | 2.92 | 98 | 1005.0 |
| 20260507012314 | 11 | 250 | 0.0 | 3.2 | 0.53 | 2.92 | 2.92 | 98 | 1005.0 |
| 20260507011811 | 11 | 231 | 3.2 | 3.2 | 0.36 | 2.87 | 2.87 | 98 | 1005.0 |
| 20260507011308 | 11 | 218 | 0.0 | 3.2 | 0.18 | 2.82 | 2.82 | 98 | 1005.0 |
| 20260507010808 | 11 | 233 | 1.6 | 1.6 | 0.18 | 2.82 | 2.82 | 98 | 1004.8 |
| 20260507010304 | 11 | 249 | 3.2 | 3.2 | 0.18 | 2.79 | 2.79 | 98 | 1004.7 |
| 20260507005801 | 11 | 295 | 1.6 | 1.6 | 0.23 | 2.77 | 2.77 | 98 | 1004.7 |
| 20260507005257 | 11 | 231 | 1.6 | 3.2 | 0.30 | 2.77 | 2.77 | 98 | 1004.9 |
| 20260507004754 | 11 | 238 | 1.6 | 3.2 | 0.18 | 2.72 | 2.72 | 98 | 1004.9 |
| 20260507004252 | 11 | 290 | 0.0 | 3.2 | 0.23 | 2.72 | 2.72 | 98 | 1004.8 |
| 20260507003748 | 11 | 103 | 0.0 | 3.2 | 0.23 | 2.69 | 2.69 | 98 | 1004.7 |
| 20260507003244 | 11 | 154 | 3.2 | 3.2 | 0.43 | 2.67 | 2.67 | 98 | 1004.7 |
| 20260507002740 | 12 | 178 | 3.2 | 3.2 | 0.71 | 2.64 | 2.64 | 98 | 1004.7 |
| 20260507002236 | 12 | 225 | 1.6 | 4.8 | 0.97 | 2.59 | 2.59 | 98 | 1004.6 |
| 20260507001733 | 12 | 216 | 3.2 | 4.8 | 1.19 | 2.51 | 2.51 | 98 | 1004.6 |
| 20260507001230 | 12 | 129 | 0.0 | 1.6 | 1.02 | 2.44 | 2.44 | 99 | 1004.6 |
| 20260507000726 | 12 | 343 | 0.0 | 3.2 | 1.02 | 2.34 | 2.34 | 98 | 1004.6 |
| 20260507000222 | 13 | 230 | 0.0 | 8.0 | 0.84 | 2.26 | 2.26 | 98 | 1004.4 |
| 20260506235719 | 13 | 296 | 1.6 | 4.8 | 0.48 | 2.16 | 2.16 | 99 | 1004.3 |
| 20260506235214 | 13 | 302 | 3.2 | 3.2 | 0.97 | 2.11 | 2.11 | 99 | 1003.9 |
| 20260506234712 | 13 | 304 | 0.0 | 3.2 | 1.02 | 2.06 | 2.06 | 99 | 1004.2 |
| 20260506234209 | 13 | 282 | 3.2 | 4.8 | 0.43 | 1.96 | 1.96 | 99 | 1004.4 |
| 20260506233707 | 13 | 281 | 1.6 | 3.2 | 0.13 | 1.88 | 1.88 | 99 | 1004.2 |
| 20260506233203 | 13 | 224 | 0.0 | 3.2 | 0.18 | 1.88 | 1.88 | 99 | 1004.2 |
| 20260506232659 | 13 | 193 | 0.0 | 1.6 | 0.18 | 1.85 | 1.85 | 99 | 1004.2 |
| 20260506232154 | 13 | 28 | 0.0 | 3.2 | 0.13 | 1.85 | 1.85 | 99 | 1004.3 |
| 20260506231652 | 13 | 304 | 3.2 | 4.8 | 0.05 | 1.83 | 1.83 | 99 | 1004.2 |
| 20260506231150 | 13 | 276 | 3.2 | 3.2 | 0.00 | 1.83 | 1.83 | 99 | 1004.2 |
| 20260506230647 | 13 | 293 | 0.0 | 1.6 | 0.00 | 1.83 | 1.83 | 98 | 1004.4 |
| 20260506230143 | 13 | 304 | 0.0 | 3.2 | 0.00 | 1.83 | 1.83 | 98 | 1004.3 |
| 20260506225640 | 13 | 269 | 0.0 | 3.2 | 0.00 | 1.83 | 1.83 | 98 | 1004.4 |
| 20260506225137 | 13 | 256 | 0.0 | 1.6 | 0.00 | 1.83 | 1.83 | 98 | 1004.6 |
| 20260506224633 | 13 | 230 | 0.0 | 0.0 | 0.05 | 1.83 | 1.83 | 98 | 1004.5 |
| 20260506224130 | 13 | 277 | 0.0 | 0.0 | 0.05 | 1.83 | 1.83 | 98 | 1004.4 |
| 20260506223626 | 13 | 269 | 0.0 | 0.0 | 0.00 | 1.80 | 1.80 | 98 | 1004.4 |
| 20260506223122 | 13 | 237 | 3.2 | 3.2 | 0.05 | 1.80 | 1.80 | 98 | 1004.5 |
| 20260506222620 | 13 | 315 | 0.0 | 0.0 | 0.30 | 1.80 | 1.80 | 98 | 1004.6 |
| 20260506222116 | 13 | 315 | 0.0 | 1.6 | 0.36 | 1.80 | 1.80 | 98 | 1004.7 |
| 20260506221614 | 13 | 278 | 4.8 | 4.8 | 0.18 | 1.75 | 1.75 | 98 | 1004.7 |
| 20260506221111 | 13 | 235 | 0.0 | 1.6 | 0.05 | 1.75 | 1.75 | 98 | 1004.9 |
| 20260506220608 | 13 | 230 | 0.0 | 0.0 | 0.00 | 1.73 | 1.73 | 98 | 1004.7 |
| 20260506215600 | 13 | 240 | 0.0 | 0.0 | 0.13 | 1.73 | 1.73 | 98 | 1005.2 |
| 20260506215055 | 13 | 246 | 0.0 | 0.0 | 0.18 | 1.73 | 1.73 | 98 | 1005.0 |
| 20260506214552 | 13 | 308 | 1.6 | 1.6 | 0.13 | 1.70 | 1.70 | 98 | 1005.1 |
| 20260506214050 | 13 | 274 | 0.0 | 1.6 | 0.18 | 1.70 | 1.70 | 98 | 1005.2 |
| 20260506213548 | 13 | 103 | 0.0 | 1.6 | 0.23 | 1.68 | 1.68 | 98 | 1005.2 |
| 20260506213045 | 13 | 230 | 0.0 | 0.0 | 0.13 | 1.65 | 1.65 | 98 | 1005.3 |
| 20260506212541 | 13 | 162 | 0.0 | 3.2 | 0.13 | 1.65 | 1.65 | 98 | 1005.3 |
| 20260506212036 | 13 | 171 | 0.0 | 3.2 | 0.23 | 1.65 | 1.65 | 98 | 1005.1 |
| 20260506211532 | 13 | 124 | 0.0 | 0.0 | 0.13 | 1.63 | 1.63 | 98 | 1005.5 |
| 20260506211030 | 13 | 293 | 0.0 | 0.0 | 0.00 | 1.60 | 1.60 | 98 | 1005.4 |
| 20260506210526 | 13 | 129 | 0.0 | 1.6 | 0.05 | 1.60 | 1.60 | 98 | 1005.4 |
| 20260506210023 | 13 | 277 | 0.0 | 3.2 | 0.13 | 1.60 | 1.60 | 98 | 1005.3 |
| 20260506205520 | 13 | 231 | 0.0 | 3.2 | 0.13 | 1.60 | 1.60 | 98 | 1005.3 |
| 20260506205015 | 13 | 309 | 0.0 | 1.6 | 0.05 | 1.57 | 1.57 | 98 | 1005.2 |
| 20260506204514 | 12 | 230 | 0.0 | 0.0 | 0.61 | 1.57 | 1.57 | 98 | 1005.0 |
| 20260506204010 | 12 | 309 | 0.0 | 0.0 | 0.97 | 1.55 | 1.55 | 98 | 1005.1 |
| 20260506203508 | 12 | 304 | 0.0 | 1.6 | 0.66 | 1.45 | 1.45 | 98 | 1005.1 |
| 20260506203004 | 12 | 289 | 3.2 | 4.8 | 1.32 | 1.40 | 1.40 | 97 | 1005.1 |
| 20260506202502 | 12 | 299 | 3.2 | 3.2 | 1.80 | 1.30 | 1.30 | 98 | 1005.2 |
| 20260506201958 | 13 | 315 | 0.0 | 3.2 | 1.27 | 1.14 | 1.14 | 97 | 1005.2 |
| 20260506201456 | 13 | 314 | 1.6 | 3.2 | 0.71 | 0.99 | 0.99 | 97 | 1005.1 |
| 20260506200952 | 13 | 64 | 0.0 | 1.6 | 0.71 | 0.91 | 0.91 | 97 | 1005.0 |
| 20260506200449 | 13 | 318 | 1.6 | 6.4 | 0.71 | 0.86 | 0.86 | 97 | 1005.3 |
| 20260506195945 | 13 | 293 | 3.2 | 3.2 | 0.66 | 0.81 | 0.81 | 97 | 1005.2 |
| 20260506195442 | 13 | 251 | 1.6 | 3.2 | 0.36 | 0.74 | 0.74 | 97 | 1005.5 |
| 20260506194938 | 13 | 264 | 1.6 | 1.6 | 0.18 | 0.69 | 0.69 | 97 | 1005.4 |
| 20260506194436 | 13 | 313 | 1.6 | 1.6 | 0.13 | 0.66 | 0.66 | 98 | 1005.6 |
| 20260506193932 | 13 | 253 | 0.0 | 1.6 | 0.18 | 0.66 | 0.66 | 98 | 1005.5 |
| 20260506193430 | 13 | 193 | 0.0 | 0.0 | 0.23 | 0.66 | 0.66 | 97 | 1005.6 |
| 20260506192926 | 13 | 129 | 0.0 | 1.6 | 0.23 | 0.64 | 0.64 | 97 | 1005.9 |
| 20260506192423 | 13 | 215 | 0.0 | 0.0 | 0.23 | 0.61 | 0.61 | 97 | 1005.9 |
| 20260506191920 | 13 | 315 | 0.0 | 1.6 | 0.23 | 0.58 | 0.58 | 97 | 1006.0 |
| 20260506191416 | 12 | 212 | 0.0 | 0.0 | 0.18 | 0.56 | 0.56 | 97 | 1006.1 |
| 20260506190914 | 12 | 215 | 0.0 | 3.2 | 0.18 | 0.56 | 0.56 | 97 | 1006.3 |
| 20260506190410 | 12 | 332 | 1.6 | 3.2 | 0.23 | 0.53 | 0.53 | 97 | 1006.1 |
| 20260506185907 | 12 | 273 | 1.6 | 3.2 | 0.23 | 0.51 | 0.51 | 97 | 1006.3 |
| 20260506185404 | 12 | 237 | 0.0 | 1.6 | 0.36 | 0.51 | 0.51 | 97 | 1006.5 |
| 20260506184901 | 12 | 258 | 3.2 | 4.8 | 0.36 | 0.46 | 0.46 | 97 | 1006.5 |
| 20260506184358 | 12 | 218 | 3.2 | 3.2 | 0.30 | 0.43 | 0.43 | 97 | 1006.4 |
| 20260506183855 | 12 | 266 | 3.2 | 6.4 | 0.23 | 0.41 | 0.41 | 97 | 1006.6 |
| 20260506183350 | 12 | 303 | 4.8 | 4.8 | 0.36 | 0.38 | 0.38 | 97 | 1006.6 |
| 20260506182848 | 12 | 265 | 1.6 | 4.8 | 0.23 | 0.36 | 0.36 | 96 | 1006.7 |
| 20260506182345 | 12 | 247 | 3.2 | 4.8 | 0.30 | 0.33 | 0.33 | 96 | 1006.9 |
| 20260506181842 | 13 | 316 | 1.6 | 3.2 | 0.43 | 0.33 | 0.33 | 96 | 1006.5 |
| 20260506181340 | 13 | 269 | 4.8 | 4.8 | 0.23 | 0.28 | 0.28 | 96 | 1006.7 |
| 20260506180837 | 13 | 280 | 4.8 | 4.8 | 0.13 | 0.25 | 0.25 | 95 | 1006.7 |
| 20260506180333 | 13 | 304 | 3.2 | 3.2 | 0.05 | 0.23 | 0.23 | 95 | 1006.6 |
| 20260506175829 | 13 | 293 | 0.0 | 1.6 | 0.13 | 0.23 | 0.23 | 95 | 1006.6 |
| 20260506175327 | 13 | 269 | 0.0 | 3.2 | 0.05 | 0.23 | 0.23 | 95 | 1006.7 |
| 20260506174824 | 13 | 208 | 3.2 | 3.2 | 0.05 | 0.20 | 0.20 | 94 | 1006.8 |
| 20260506174321 | 13 | 236 | 0.0 | 3.2 | 0.05 | 0.20 | 0.20 | 94 | 1006.8 |
| 20260506173818 | 13 | 233 | 3.2 | 3.2 | 0.00 | 0.20 | 0.20 | 93 | 1006.8 |
| 20260506173315 | 13 | 175 | 0.0 | 0.0 | 0.05 | 0.20 | 0.20 | 94 | 1006.8 |
| 20260506172812 | 13 | 157 | 0.0 | 1.6 | 0.05 | 0.20 | 0.20 | 93 | 1007.1 |
| 20260506172308 | 13 | 157 | 0.0 | 1.6 | 0.00 | 0.18 | 0.18 | 93 | 1007.0 |
| 20260506171806 | 13 | 264 | 0.0 | 3.2 | 0.00 | 0.18 | 0.18 | 94 | 1007.0 |
| 20260506171303 | 13 | 212 | 0.0 | 3.2 | 0.05 | 0.18 | 0.18 | 94 | 1007.3 |
| 20260506170801 | 13 | 225 | 0.0 | 1.6 | 0.05 | 0.18 | 0.18 | 93 | 1007.3 |
| 20260506170257 | 13 | 159 | 0.0 | 4.8 | 0.05 | 0.18 | 0.18 | 93 | 1007.3 |
| 20260506165755 | 13 | 184 | 0.0 | 1.6 | 0.13 | 0.18 | 0.18 | 93 | 1007.3 |
| 20260506165253 | 13 | 321 | 0.0 | 1.6 | 0.18 | 0.18 | 0.18 | 92 | 1007.3 |
| 20260506164749 | 13 | 309 | 0.0 | 0.0 | 0.05 | 0.15 | 0.15 | 93 | 1007.3 |
| 20260506164246 | 13 | 135 | 0.0 | 3.2 | 0.00 | 0.15 | 0.15 | 92 | 1007.8 |
| 20260506163743 | 13 | 219 | 0.0 | 3.2 | 0.05 | 0.15 | 0.15 | 93 | 1007.7 |
| 20260506163238 | 13 | 118 | 0.0 | 1.6 | 0.18 | 0.15 | 0.15 | 94 | 1007.9 |
| 20260506162734 | 13 | 283 | 0.0 | 0.0 | 0.13 | 0.13 | 0.13 | 94 | 1008.0 |
| 20260506162232 | 13 | 197 | 1.6 | 1.6 | 0.05 | 0.10 | 0.10 | 93 | 1008.4 |
| 20260506161729 | 13 | 127 | 0.0 | 1.6 | 0.13 | 0.10 | 0.10 | 92 | 1008.5 |
| 20260506161226 | 13 | 180 | 3.2 | 3.2 | 0.13 | 0.10 | 0.10 | 92 | 1008.6 |
| 20260506160724 | 13 | 147 | 0.0 | 0.0 | 0.05 | 0.10 | 0.10 | 93 | 1008.3 |
| 20260506160220 | 13 | 147 | 0.0 | 0.0 | 0.05 | 0.08 | 0.08 | 92 | 1008.4 |
| 20260506155719 | 13 | 119 | 0.0 | 3.2 | 0.13 | 0.08 | 0.08 | 91 | 1008.6 |
| 20260506155215 | 13 | 113 | 0.0 | 0.0 | 0.13 | 0.08 | 0.08 | 91 | 1008.7 |
| 20260506153317 | 13 | 256 | 0.0 | 3.2 | 0.00 | 0.05 | 0.05 | 88 | 1008.8 |
| 20260506152814 | 13 | 272 | 3.2 | 3.2 | 0.00 | 0.05 | 0.05 | 88 | 1008.6 |
| 20260506152311 | 13 | 309 | 3.2 | 4.8 | 0.00 | 0.05 | 0.05 | 87 | 1008.5 |
| 20260506151810 | 13 | 257 | 3.2 | 4.8 | 0.00 | 0.05 | 0.05 | 87 | 1008.6 |
| 20260506151306 | 13 | 251 | 3.2 | 6.4 | 0.00 | 0.05 | 0.05 | 86 | 1008.6 |
| 20260506150803 | 13 | 246 | 4.8 | 8.0 | 0.00 | 0.05 | 0.05 | 86 | 1008.6 |
| 20260506150304 | 13 | 267 | 3.2 | 4.8 | 0.00 | 0.05 | 0.05 | 86 | 1008.5 |
| 20260506145757 | 14 | 246 | 4.8 | 6.4 | 0.00 | 0.05 | 0.05 | 85 | 1008.3 |
| 20260506145253 | 14 | 187 | 1.6 | 3.2 | 0.00 | 0.05 | 0.05 | 82 | 1008.4 |
| 20260506144751 | 14 | 145 | 0.0 | 3.2 | 0.00 | 0.05 | 0.05 | 82 | 1008.5 |
| 20260506144248 | 14 | 248 | 1.6 | 3.2 | 0.00 | 0.05 | 0.05 | 82 | 1008.3 |
| 20260506143745 | 14 | 198 | 1.6 | 4.8 | 0.00 | 0.05 | 0.05 | 83 | 1008.2 |
| 20260506143243 | 14 | 122 | 0.0 | 3.2 | 0.00 | 0.05 | 0.05 | 86 | 1008.3 |
| 20260506142741 | 14 | 227 | 0.0 | 1.6 | 0.00 | 0.05 | 0.05 | 90 | 1008.3 |
| 20260506142239 | 13 | 259 | 3.2 | 4.8 | 0.00 | 0.05 | 0.05 | 89 | 1008.4 |
| 20260506141737 | 13 | 260 | 3.2 | 6.4 | 0.00 | 0.05 | 0.05 | 89 | 1008.6 |
| 20260506141235 | 13 | 269 | 6.4 | 8.0 | 0.00 | 0.05 | 0.05 | 90 | 1008.7 |
| 20260506140732 | 13 | 267 | 4.8 | 6.4 | 0.00 | 0.05 | 0.05 | 89 | 1008.7 |
| 20260506140229 | 13 | 256 | 1.6 | 3.2 | 0.00 | 0.05 | 0.05 | 88 | 1008.7 |
| 20260506135725 | 13 | 255 | 3.2 | 3.2 | 0.00 | 0.05 | 0.05 | 88 | 1008.8 |
| 20260506135222 | 13 | 242 | 3.2 | 3.2 | 0.00 | 0.05 | 0.05 | 89 | 1008.9 |
| 20260506134719 | 13 | 244 | 1.6 | 3.2 | 0.00 | 0.05 | 0.05 | 87 | 1008.9 |
| 20260506134215 | 13 | 230 | 0.0 | 1.6 | 0.00 | 0.05 | 0.05 | 88 | 1008.7 |
| 20260506133713 | 13 | 157 | 0.0 | 1.6 | 0.00 | 0.05 | 0.05 | 88 | 1008.7 |
| 20260506133209 | 13 | 253 | 0.0 | 3.2 | 0.00 | 0.05 | 0.05 | 89 | 1008.8 |
| 20260506132706 | 13 | 230 | 1.6 | 1.6 | 0.00 | 0.05 | 0.05 | 93 | 1009.0 |
| 20260506132203 | 12 | 269 | 0.0 | 3.2 | 0.00 | 0.05 | 0.05 | 92 | 1008.9 |
| 20260506131701 | 12 | 286 | 3.2 | 3.2 | 0.00 | 0.05 | 0.05 | 92 | 1008.8 |
| 20260506131156 | 12 | 281 | 3.2 | 3.2 | 0.00 | 0.05 | 0.05 | 92 | 1009.2 |
| 20260506130653 | 12 | 269 | 0.0 | 0.0 | 0.00 | 0.05 | 0.05 | 93 | 1009.1 |
| 20260506130151 | 12 | 103 | 0.0 | 1.6 | 0.00 | 0.05 | 0.05 | 92 | 1009.2 |
| 20260506125649 | 12 | 309 | 0.0 | 3.2 | 0.00 | 0.05 | 0.05 | 91 | 1009.3 |
| 20260506125146 | 12 | 247 | 1.6 | 3.2 | 0.00 | 0.05 | 0.05 | 92 | 1009.5 |
| 20260506124644 | 12 | 307 | 0.0 | 1.6 | 0.00 | 0.05 | 0.05 | 93 | 1009.6 |
| 20260506124142 | 12 | 259 | 3.2 | 3.2 | 0.00 | 0.05 | 0.05 | 93 | 1009.5 |
| 20260506123639 | 12 | 247 | 1.6 | 1.6 | 0.00 | 0.05 | 0.05 | 94 | 1009.5 |
| 20260506123138 | 12 | 273 | 3.2 | 3.2 | 0.00 | 0.05 | 0.05 | 95 | 1009.6 |
| 20260506122634 | 12 | 309 | 1.6 | 1.6 | 0.00 | 0.05 | 0.05 | 95 | 1009.5 |
| 20260506122132 | 12 | 306 | 0.0 | 1.6 | 0.00 | 0.05 | 0.05 | 95 | 1009.5 |
| 20260506121629 | 12 | 173 | 0.0 | 0.0 | 0.00 | 0.05 | 0.05 | 94 | 1009.2 |
| 20260506121125 | 12 | 145 | 0.0 | 1.6 | 0.00 | 0.05 | 0.05 | 93 | 1009.5 |
| 20260506120624 | 12 | 283 | 0.0 | 1.6 | 0.00 | 0.05 | 0.05 | 92 | 1009.4 |
| 20260506120121 | 12 | 281 | 3.2 | 3.2 | 0.00 | 0.05 | 0.05 | 93 | 1009.6 |
| 20260506115619 | 12 | 299 | 3.2 | 6.4 | 0.00 | 0.05 | 0.05 | 94 | 1009.7 |
| 20260506115117 | 12 | 261 | 6.4 | 6.4 | 0.00 | 0.05 | 0.05 | 97 | 1009.5 |
| 20260506114614 | 12 | 199 | 0.0 | 1.6 | 0.00 | 0.05 | 0.05 | 98 | 1009.5 |
| 20260506114112 | 12 | 247 | 3.2 | 3.2 | 0.00 | 0.05 | 0.05 | 98 | 1009.5 |
| 20260506113610 | 11 | 309 | 0.0 | 1.6 | 0.00 | 0.05 | 0.05 | 98 | 1009.4 |
| 20260506113107 | 12 | 224 | 0.0 | 1.6 | 0.00 | 0.05 | 0.05 | 98 | 1009.2 |
| 20260506112603 | 11 | 124 | 0.0 | 0.0 | 0.00 | 0.05 | 0.05 | 98 | 1009.2 |
| 20260506112101 | 11 | 116 | 0.0 | 1.6 | 0.00 | 0.05 | 0.05 | 98 | 1009.3 |
| 20260506111558 | 11 | 347 | 0.0 | 3.2 | 0.00 | 0.05 | 0.05 | 98 | 1009.5 |
| 20260506111055 | 11 | 310 | 0.0 | 3.2 | 0.00 | 0.05 | 0.05 | 98 | 1009.5 |
| 20260506110553 | 11 | 235 | 0.0 | 0.0 | 0.00 | 0.05 | 0.05 | 98 | 1009.2 |
| 20260506110050 | 11 | 235 | 0.0 | 0.0 | 0.00 | 0.05 | 0.05 | 98 | 1009.4 |
| 20260506105546 | 11 | 256 | 0.0 | 0.0 | 0.00 | 0.05 | 0.05 | 98 | 1009.5 |
| 20260506105044 | 11 | 110 | 1.6 | 3.2 | 0.00 | 0.05 | 0.05 | 98 | 1009.5 |
| 20260506104542 | 11 | 105 | 1.6 | 3.2 | 0.00 | 0.05 | 0.05 | 98 | 1009.5 |
| 20260506104039 | 11 | 112 | 0.0 | 1.6 | 0.00 | 0.05 | 0.05 | 98 | 1009.4 |
| 20260506103536 | 11 | 120 | 0.0 | 1.6 | 0.00 | 0.05 | 0.05 | 98 | 1009.5 |
| 20260506103033 | 11 | 124 | 0.0 | 0.0 | 0.00 | 0.05 | 0.05 | 98 | 1009.3 |
| 20260506102531 | 11 | 117 | 1.6 | 3.2 | 0.00 | 0.05 | 0.05 | 98 | 1009.3 |
| 20260506102028 | 11 | 103 | 0.0 | 1.6 | 0.00 | 0.05 | 0.05 | 98 | 1009.4 |
| 20260506101525 | 11 | 96 | 1.6 | 3.2 | 0.00 | 0.05 | 0.05 | 98 | 1009.4 |
| 20260506101022 | 10 | 88 | 3.2 | 3.2 | 0.00 | 0.05 | 0.05 | 98 | 1009.6 |
| 20260506100520 | 10 | 135 | 0.0 | 3.2 | 0.00 | 0.05 | 0.05 | 98 | 1009.6 |
| 20260506100018 | 10 | 106 | 0.0 | 0.0 | 0.00 | 0.05 | 0.05 | 98 | 1009.4 |
| 20260506095517 | 10 | 142 | 0.0 | 1.6 | 0.00 | 0.05 | 0.05 | 97 | 1009.2 |
| 20260506095012 | 10 | 212 | 0.0 | 1.6 | 0.00 | 0.05 | 0.05 | 97 | 1009.1 |
| 20260506094511 | 10 | 107 | 0.0 | 0.0 | 0.00 | 0.05 | 0.05 | 97 | 1009.0 |
| 20260506094008 | 11 | 92 | 1.6 | 3.2 | 0.00 | 0.05 | 0.05 | 97 | 1009.2 |
| 20260506093506 | 11 | 118 | 3.2 | 3.2 | 0.00 | 0.05 | 0.05 | 97 | 1009.1 |
| 20260506093004 | 11 | 304 | 0.0 | 1.6 | 0.00 | 0.05 | 0.05 | 97 | 1009.7 |
| 20260506092501 | 11 | 252 | 0.0 | 0.0 | 0.00 | 0.05 | 0.05 | 97 | 1009.5 |
| 20260506091957 | 11 | 328 | 0.0 | 1.6 | 0.00 | 0.05 | 0.05 | 97 | 1009.5 |
| 20260506091456 | 11 | 293 | 0.0 | 0.0 | 0.00 | 0.05 | 0.05 | 97 | 1009.3 |
| 20260506090953 | 11 | 67 | 1.6 | 3.2 | 0.00 | 0.05 | 0.05 | 96 | 1009.1 |
| 20260506090451 | 11 | 326 | 0.0 | 0.0 | 0.00 | 0.05 | 0.05 | 96 | 1008.9 |
| 20260506085946 | 11 | 89 | 0.0 | 3.2 | 0.00 | 0.05 | 0.05 | 96 | 1008.8 |
| 20260506085444 | 11 | 89 | 0.0 | 1.6 | 0.00 | 0.05 | 0.05 | 96 | 1008.8 |
| 20260506084940 | 11 | 114 | 0.0 | 1.6 | 0.00 | 0.05 | 0.05 | 96 | 1009.2 |
| 20260506084437 | 11 | 246 | 0.0 | 1.6 | 0.00 | 0.05 | 0.05 | 95 | 1008.8 |
| 20260506083933 | 11 | 278 | 0.0 | 3.2 | 0.00 | 0.05 | 0.05 | 95 | 1008.9 |
| 20260506083431 | 11 | 57 | 1.6 | 3.2 | 0.00 | 0.05 | 0.05 | 93 | 1008.9 |
| 20260506082928 | 11 | 122 | 3.2 | 3.2 | 0.00 | 0.05 | 0.05 | 91 | 1009.2 |
| 20260506082425 | 12 | 302 | 0.0 | 8.0 | 0.00 | 0.05 | 0.05 | 87 | 1008.9 |
| 20260506081920 | 12 | 287 | 4.8 | 6.4 | 0.05 | 0.05 | 0.05 | 85 | 1009.0 |
| 20260506081419 | 12 | 273 | 9.7 | 11.3 | 0.05 | 0.05 | 0.05 | 85 | 1009.3 |
| 20260506080916 | 12 | 293 | 4.8 | 4.8 | 0.00 | 0.03 | 0.03 | 88 | 1009.5 |
| 20260506080412 | 12 | 272 | 3.2 | 6.4 | 0.00 | 0.03 | 0.03 | 88 | 1009.4 |